Regional Weather Roundup
Issued by NWS Portland, ME

Current Version | Previous Version | Text Only | Print | Product List | Glossary Off
Versions: 1 2 3 4 5 6 7 8 9 10 11 12 13 14 15 16 17 18 19 20 21 22 23 24 25 26 27 28 29 30 31 32 33 34 35 36 37 38 39 40 41 42 43 44 45 46 47 48 49 50
000 ASUS41 KGYX 302205 RWRGYX WEATHER ROUNDUP FOR MAINE AND NEW HAMPSHIRE NATIONAL WEATHER SERVICE GRAY ME 600 PM EDT SUN APR 30 2017 MEZ002-005-006-010-012-015-018-020-021-024-026-027-029-302300- MAINE CITY SKY/WX TMP DP RH WIND PRES REMARKS PORTLAND CLOUDY 46 33 60 S8 30.26S SANFORD CLOUDY 44 35 70 S7 30.27R BAR HARBOR CLOUDY 47 34 60 SW9 30.24S WISCASSET CLOUDY 46 36 68 S5 30.28R ROCKLAND LGT RAIN 43 36 76 SW8 30.27S FRYEBURG CLOUDY 54 34 46 E9 30.22S LEWISTONAUBURN CLOUDY 48 32 53 S5 30.25R AUGUSTA CLOUDY 48 33 56 SW7 30.25R BANGOR CLOUDY 55 24 30 S3 30.23R GREENVILLE N/A 50 21 32 NW5 30.19R MILLINOCKET MOSUNNY 55 22 27 VRB3 30.22R HOULTON CLOUDY 54 22 28 N9 30.20S PRESQUE ISLE MOSUNNY 52 21 29 NW6 30.23R FRENCHVILLE CLOUDY 49 14 24 NW7 30.22R CARIBOU CLOUDY 52 21 29 VRB7 30.21S $$ NHZ002-005-008-009-011-012-014-302300- NEW HAMPSHIRE CITY SKY/WX TMP DP RH WIND PRES REMARKS PORTSMOUTH LGT RAIN 45 37 76 SE7 30.23F ROCHESTER LGT RAIN 43 37 79 SE6 30.25F NASHUA CLOUDY 51 39 63 SE7 30.24S MANCHESTER CLOUDY 52 37 56 SE15 30.20S CONCORD CLOUDY 53 39 59 E7 30.21F LACONIA CLOUDY 49 36 61 CALM 30.23S PLYMOUTH CLOUDY 51 33 51 CALM 30.22R BERLIN CLOUDY 47 32 56 NW3 30.22S WHITEFIELD CLOUDY 45 31 58 NE3 30.23R JAFFREY CLOUDY 53 41 63 S8 30.20F KEENE CLOUDY 53 39 59 S5 30.20F LEBANON CLOUDY 47 40 76 NE5 30.21F MT WASHINGTON CLOUDY 39 21 48 SW14 N/A $$ VTZ005-007-008-302300- VERMONT CITY SKY/WX TMP DP RH WIND PRES REMARKS ST JOHNSBURY N/A 44 34 67 MISG 30.23R MONTPELIER CLOUDY 47 33 58 S3 30.25R BURLINGTON CLOUDY 45 35 68 N5 30.23R $$ MAZ007-012-024-CTZ003-RIZ002-NYZ038-NYZ072-302300- SOUTHERN NEW ENGLAND AND NY CITY SKY/WX TMP DP RH WIND PRES REMARKS BOSTON CLOUDY 47 37 68 S7 30.26F WORCESTER CLOUDY 50 41 71 SE8 30.22S NANTUCKET CLOUDY 46 36 68 E10 30.27F PROVIDENCE CLOUDY 52 39 61 S10 30.26S HARTFORD CLOUDY 55 44 66 S3 30.22S ALBANY CLOUDY 50 36 58 CALM 30.18F NEW YORK CITY PTSUNNY 58 40 51 E10 30.22R $$ ANZ081-ANZ082-ANZ150-NHZ014-MEZ023>029-302300- COASTAL MARINE OBSERVATIONS STATION/POSITION TIME TEMP WIND PRES WAVE AIR SEA DIR/SP/G HT/PER (UTC) (F) (DEG/KT/KT) (MB) (FT/S) MOUNT DESERT ROC 2100 42 1024.5R MATINICUS ROCK 2100 42 240/ 10/ 11 1024.4R ISLE OF SHOALS 2100 43 160/ 12/ 13 1024.9F JEFFREYS LEDGE 2106 45 N/A 2/ 8 CASHES LEDGE BUO 2050 43 44 1025.2 2/ 6 GEORGES BANK BUO 2050 42 42 1024.8 6/ 7 $$ .............KEY.............. WCI - WIND CHILL TC - TEMPERATURE IN CELSIUS VSB - VISIBILITY IN MILES HX - HEAT INDEX FAIR- INDICATES FEW OR NO CLOUDS BELOW 12,000 FT, WITH NO SIGNIFICANT WEATHER AND/OR OBSTRUCTIONS TO VISIBILITY.

USA.gov is the U.S. government's official web portal to all federal, state and local government web resources and services.